User: anonymous   Login
Location: Robert Brownlee Observatory
(34.2308°N, 117.2089°W)
Time: 10:17:51
(UTC-08:00)
Language:

Cosmos 1943 - Orbit

View from above orbital plane
View from above orbital plane
View from above satellite
View from above satellite

Ground track
Ground track

The orbit data is extracted from the following two-line orbital elements,

1 19119U 88039A   15024.59786065  .00000199  00000-0  12746-3 0  3443
2 19119 071.0042 138.2920 0013442 302.5934 146.0995 14.14981794378372
Epoch (UTC): 24 January 2015 14:20:55
Eccentricity: 0.0013442
inclination: 71.0042°
perigee height: 832 km
apogee height: 852 km
right ascension of ascending node: 138.2920°
argument of perigee: 302.5934°
revolutions per day: 14.14981794
mean anomaly at epoch: 146.0995°
orbit number at epoch: 37837

The dashed part of the orbit path shows where the satellite is in the earth's shadow,  

DLR